Printer-friendly version

IAU Minor Planet Center

Minor Planet Center

MPEC 2006-Y41 : 2006 YX2

The following Minor Planet Electronic Circular may be linked-to from your own Web pages, but must not otherwise be redistributed electronically.


Read MPEC 2006-Y40 Read MPEC 2006-Y42


M.P.E.C. 2006-Y41                                Issued 2006 Dec. 23, 13:55 UT

     The Minor Planet Electronic Circulars contain information on unusual
         minor planets and routine data on comets.  They are published
   on behalf of Commission 20 of the International Astronomical Union by the
          Minor Planet Center, Smithsonian Astrophysical Observatory,
                          Cambridge, MA 02138, U.S.A.

             Prepared using the Tamkin Foundation Computer Network

                              MPC@CFA.HARVARD.EDU
          URL http://cfa-www.harvard.edu/iau/mpc.html  ISSN 1523-6714

                                   2006 YX2

Observations:
     K06Y02X* C2006 12 22.18771 04 47 28.17 +24 53 04.8          19.9   EY041704
     K06Y02X  C2006 12 22.20031 04 47 19.06 +24 57 19.3          20.1   EY041704
     K06Y02X  C2006 12 22.21292 04 47 10.01 +25 01 31.6          20.4   EY041704
     K06Y02X  C2006 12 22.23816 04 46 51.65 +25 09 58.6          20.2   EY041704
     K06Y02X  C2006 12 23.23183 04 35 44.45 +30 20 29.0          19.6 R EY041734
     K06Y02X  C2006 12 23.23367 04 35 43.13 +30 21 00.9          20.3 R EY041734
     K06Y02X  C2006 12 23.23550 04 35 41.78 +30 21 33.5          20.1 R EY041734
     K06Y02X  C2006 12 23.23734 04 35 40.57 +30 22 04.2          19.8 R EY041734
     K06Y02X  C2006 12 23.23918 04 35 39.35 +30 22 36.4          20.5 R EY041734
     K06Y02X  C2006 12 23.33987 04 34 30.28 +30 51 54.7          19.2 V EY041G96
     K06Y02X  C2006 12 23.34098 04 34 29.49 +30 52 14.1          19.0 V EY041G96
     K06Y02X  C2006 12 23.34319 04 34 27.99 +30 52 51.3          18.9 V EY041G96
     K06Y02X  C2006 12 23.36230 04 34 14.77 +30 58 17.6          19.4 V EY041G96
     K06Y02X  C2006 12 23.36376 04 34 13.72 +30 58 42.6          19.1 V EY041G96
     K06Y02X  C2006 12 23.36516 04 34 12.79 +30 59 06.1          19.6 V EY041G96
     K06Y02X  C2006 12 23.36655 04 34 11.85 +30 59 30.0          19.5 V EY041G96

Observer details:
704 Lincoln Laboratory ETS, New Mexico.  Observers M. Bezpalko, D. Torres,
    R. Kracke, G. Spitz, J. Kistler.  Measurers J. Stuart, S. Scruggs.  1.0-m
    f/2.15 reflector + CCD.
734 Farpoint Observatory.  Observer G. Hug.  0.7-m reflector + CCD.
G96 Mt. Lemmon Survey.  Observer R. A. Kowalski.  Measurers E. C. Beshore,
    E. J. Christensen, G. J. Garradd, A. R. Gibbs, A. D. Grauer, R. E. Hill,
    R. A. Kowalski, S. M. Larson, R. H. McNaught.  1.5-m reflector + CCD.

Orbital elements:
2006 YX2                                                 Earth MOID = 0.0666 AU
Epoch 2007 Apr. 10.0 TT = JDT 2454200.5                 MPC
M 202.98544              (2000.0)            P               Q
n   0.97321194     Peri.  245.19600     +0.78585125     +0.38974216
a   1.0084734      Node    88.61841     -0.22897728     +0.90460752
e   0.1658029      Incl.   28.70397     -0.57446255     +0.17258704
P   1.01           H   24.1           G   0.15           U   8
Residuals in seconds of arc
061222 704  0.5-  0.1-    061223 734  0.9-  0.8+    061223 G96  0.2+  0.0
061222 704  0.3-  0.4+    061223 734  0.2+  0.7-    061223 G96  0.3-  0.1+
061222 704  0.9+  0.9-    061223 734  1.1+  0.6-    061223 G96  0.2+  0.2-
061222 704  0.1+  0.5+    061223 G96  0.3-  0.1-    061223 G96  0.4+  0.0
061223 734  0.4+  0.5+    061223 G96  0.5-  0.3+
061223 734  0.0   0.2+    061223 G96  0.0   0.3-

Ephemeris:
2006 YX2                 a,e,i = 1.01, 0.17, 29                  q = 0.8413
Date    TT    R. A. (2000) Decl.     Delta      r     Elong.  Phase     V
2006 12 21    05 01.09   +17 48.3    0.0701   1.052   166.2    12.9    19.2
2006 12 22    04 49.57   +23 49.6    0.0736   1.055   164.0    14.9    19.4
2006 12 23    04 38.33   +29 11.7    0.0779   1.057   160.0    18.6    19.6
2006 12 24    04 27.43   +33 53.3    0.0831   1.060   155.6    22.6    19.9
2006 12 25    04 16.93   +37 56.7    0.0889   1.062   151.3    26.4    20.2
2006 12 26    04 06.89   +41 25.5    0.0952   1.065   147.4    29.8    20.4
2006 12 27    03 57.33   +44 24.1    0.102    1.067   143.8    32.9    20.7
2006 12 28    03 48.28   +46 56.9    0.109    1.070   140.6    35.7    20.9
2006 12 29    03 39.76   +49 07.8    0.116    1.072   137.8    38.1    21.1
2006 12 30    03 31.76   +51 00.3    0.124    1.075   135.2    40.2    21.3
2006 12 31    03 24.28   +52 37.4    0.132    1.077   132.8    42.0    21.5
2007 01 01    03 17.32   +54 01.6    0.140    1.080   130.7    43.6    21.7
2007 01 02    03 10.86   +55 14.9    0.148    1.082   128.8    45.1    21.8
2007 01 03    03 04.87   +56 19.1    0.156    1.084   127.0    46.4    22.0
2007 01 04    02 59.35   +57 15.6    0.164    1.087   125.4    47.5    22.2
2007 01 05    02 54.27   +58 05.5    0.173    1.089   123.9    48.5    22.3
2007 01 06    02 49.62   +58 49.9    0.181    1.091   122.5    49.4    22.4
2007 01 07    02 45.36   +59 29.6    0.190    1.094   121.2    50.3    22.6
2007 01 08    02 41.48   +60 05.2    0.198    1.096   120.0    51.0    22.7
2007 01 09    02 37.95   +60 37.3    0.207    1.098   118.9    51.7    22.8
2007 01 10    02 34.77   +61 06.5    0.215    1.100   117.8    52.3    22.9

Timothy B. Spahr             (C) Copyright 2006 MPC           M.P.E.C. 2006-Y41

Read MPEC 2006-Y40 Read MPEC 2006-Y42


Our Web policy. Index to the CBAT/MPC/ICQ pages.


Valid HTML 4.01!